Date String (YYYY-MM-DD hh:mm:ss) UTC,Instrument flags,Ambient pressure (hPa),Sample flow (lpm),Bypass flow (lpm),Sample temperature (°C),Ambient temperature (°C),ASC tube jacket temperature (°C),LED temperature (°C),Box temperature (°C),Sample RH (%),Span deviation,Mass concentration (μg/m³),Mass concentration (μg/m³),Mass concentration (μg/m³)
DateTimeUTC,F1_M11,P_M11,Q1_M11,Q2_M11,T1_M11,T2_M11,T3_M11,T4_M11,T5_M11,U1_M11,ZSPAN_M11,X0_M11,X2_M11,X1_M11
2023-01-02 19:00:00,,0815.7,4.99,0.00,22.7,21.2,00.0,31.6,24.3,15.8,-001.2,0009.08,0006.97,0006.90
2023-01-02 19:01:00,,0815.7,5.01,0.00,22.6,21.1,00.0,31.5,24.3,15.9,-001.3,0009.10,0006.98,0006.90
2023-01-02 19:02:00,,0815.8,4.99,0.00,22.6,21.0,00.0,31.5,24.2,15.9,-001.0,0009.10,0007.00,0006.92
2023-01-02 19:03:00,,0815.8,4.99,0.00,22.6,21.0,00.0,31.5,24.2,16.0,-001.4,0009.08,0006.98,0006.91
2023-01-02 19:04:00,,0815.8,5.00,0.00,22.5,21.0,00.0,31.5,24.2,16.1,-001.0,0009.05,0006.96,0006.89
2023-01-02 19:05:00,,0815.8,5.00,0.00,22.5,20.9,00.0,31.5,24.1,16.1,-001.3,0009.03,0006.95,0006.88
2023-01-02 19:06:00,,0815.8,5.02,0.00,22.6,21.6,00.0,31.4,24.3,16.1,-000.9,0009.00,0006.93,0006.87
2023-01-02 19:07:00,,0815.9,5.01,0.00,22.7,22.6,00.0,31.4,24.6,16.1,-001.1,0009.02,0006.96,0006.90
2023-01-02 19:08:00,,0815.9,4.97,0.00,22.8,22.7,00.0,31.5,24.7,16.0,-001.3,0009.05,0006.98,0006.92
2023-01-02 19:09:00,,0815.9,5.03,0.00,22.8,22.3,00.0,31.5,24.6,16.0,-001.7,0009.08,0006.99,0006.92
2023-01-02 19:10:00,,0815.9,5.04,0.00,22.7,22.0,00.0,31.5,24.5,16.0,-002.0,0009.14,0007.02,0006.94
2023-01-02 19:11:00,,0815.9,4.98,0.00,22.7,21.7,00.0,31.5,24.5,16.0,-001.9,0009.15,0007.05,0006.96
2023-01-02 19:12:00,,0815.9,4.99,0.00,22.7,21.5,00.0,31.6,24.4,16.0,-001.8,0009.14,0007.04,0006.96
2023-01-02 19:13:00,,0815.8,4.99,0.00,22.7,21.3,00.0,31.5,24.3,16.0,-001.3,0009.12,0007.04,0006.96
2023-01-02 19:14:00,,0815.8,4.97,0.00,22.6,21.2,00.0,31.5,24.3,15.9,-000.3,0009.12,0007.04,0006.95
2023-01-02 19:15:00,,0815.8,5.07,0.00,22.6,21.1,00.0,31.5,24.3,16.0,0000.0,0009.15,0007.05,0006.96
2023-01-02 19:16:00,,0815.7,4.96,0.00,22.6,21.0,00.0,31.5,24.2,16.0,-000.4,0009.17,0007.05,0006.95
2023-01-02 19:17:00,,0815.9,5.02,0.00,22.6,21.0,00.0,31.5,24.2,16.1,0000.0,0009.16,0007.03,0006.93
2023-01-02 19:18:00,,0816.0,4.99,0.00,22.6,21.0,00.0,31.5,24.2,16.1,0000.0,0009.15,0007.01,0006.91
2023-01-02 19:19:00,,0816.1,5.00,0.00,22.5,21.0,00.0,31.5,24.2,16.1,-000.1,0009.13,0006.98,0006.87
2023-01-02 19:20:00,,0816.1,5.00,0.00,22.5,21.0,00.0,31.5,24.2,16.1,0000.0,0009.07,0006.93,0006.83
2023-01-02 19:21:00,,0816.1,4.99,0.00,22.5,21.0,00.0,31.4,24.2,16.1,0000.0,0009.01,0006.90,0006.82
2023-01-02 19:22:00,,0816.0,5.02,0.00,22.6,21.7,00.0,31.4,24.4,16.1,0000.5,0009.00,0006.86,0006.78
2023-01-02 19:23:00,,0815.8,5.00,0.00,22.7,22.7,00.0,31.4,24.6,15.9,0000.7,0008.97,0006.83,0006.76
2023-01-02 19:24:00,,0815.6,5.00,0.00,22.8,22.9,00.0,31.4,24.8,15.8,0000.6,0008.94,0006.80,0006.73
2023-01-02 19:25:00,,0815.6,4.99,0.00,22.8,22.5,00.0,31.5,24.7,15.8,0000.3,0008.95,0006.79,0006.73
2023-01-02 19:26:00,,0815.9,5.02,0.00,22.8,22.1,00.0,31.5,24.6,15.7,0000.2,0008.93,0006.77,0006.71
2023-01-02 19:27:00,,0815.7,5.02,0.00,22.8,21.9,00.0,31.5,24.6,15.7,-000.0,0008.92,0006.78,0006.72
2023-01-02 19:28:00,,0815.9,4.99,0.00,22.8,21.7,00.0,31.5,24.5,15.7,0000.2,0008.99,0006.82,0006.76
2023-01-02 19:29:00,,0815.7,5.00,0.00,22.8,21.6,00.0,31.6,24.5,15.7,0000.2,0009.03,0006.87,0006.80
2023-01-02 19:30:00,,0815.7,4.99,0.00,22.8,21.5,00.0,31.6,24.5,15.7,-000.0,0009.05,0006.90,0006.83
2023-01-02 19:31:00,,0815.6,5.01,0.00,22.8,21.4,00.0,31.6,24.5,15.6,-000.4,0009.09,0006.92,0006.85
2023-01-02 19:32:00,,0815.6,5.00,0.00,22.7,21.4,00.0,31.6,24.4,15.6,-000.8,0009.10,0006.92,0006.84
2023-01-02 19:33:00,,0815.8,5.00,0.00,22.7,21.3,00.0,31.6,24.4,15.6,-001.0,0009.05,0006.92,0006.84
2023-01-02 19:34:00,,0816.0,5.00,0.00,22.7,21.3,00.0,31.6,24.4,15.6,-000.8,0009.06,0006.93,0006.85
2023-01-02 19:35:00,,0816.0,5.01,0.00,22.7,21.3,00.0,31.6,24.4,15.7,-001.2,0009.12,0006.96,0006.86
2023-01-02 19:36:00,,0816.1,5.00,0.00,22.7,21.2,00.0,31.5,24.4,15.7,-001.5,0009.13,0006.96,0006.86
2023-01-02 19:37:00,,0816.1,5.00,0.00,22.7,21.2,00.0,31.5,24.4,15.8,-001.4,0009.15,0006.96,0006.86
2023-01-02 19:38:00,,0816.1,4.99,0.00,22.7,21.2,00.0,31.5,24.3,15.8,-000.1,0009.12,0006.93,0006.83
2023-01-02 19:39:00,,0816.1,5.00,0.00,22.7,21.2,00.0,31.5,24.4,15.7,-000.9,0009.02,0006.83,0006.73
2023-01-02 19:40:00,,0816.0,4.99,0.00,22.7,21.2,00.0,31.5,24.4,15.7,-000.1,0008.91,0006.72,0006.62
2023-01-02 19:41:00,,0816.0,5.00,0.00,22.7,21.2,00.0,31.5,24.3,15.6,-000.2,0008.83,0006.63,0006.53
2023-01-02 19:42:00,,0816.0,5.01,0.00,22.7,21.6,00.0,31.5,24.5,15.6,0000.0,0008.80,0006.56,0006.46
2023-01-02 19:43:00,,0815.6,5.00,0.00,22.8,22.6,00.0,31.5,24.7,15.6,0000.0,0008.74,0006.50,0006.39
2023-01-02 19:44:00,,0815.6,5.00,0.00,22.9,23.0,00.0,31.5,24.9,15.5,0000.0,0008.71,0006.44,0006.33
2023-01-02 19:45:00,,0815.6,4.99,0.00,22.9,22.7,00.0,31.6,24.8,15.4,-000.2,0008.65,0006.37,0006.26
2023-01-02 19:46:00,,0815.8,5.00,0.00,22.9,22.3,00.0,31.6,24.7,15.4,-000.0,0008.55,0006.29,0006.19
2023-01-02 19:47:00,,0816.0,5.00,0.00,22.9,22.0,00.0,31.6,24.7,15.4,0000.0,0008.47,0006.22,0006.13
2023-01-02 19:48:00,,0816.1,5.00,0.00,22.9,21.8,00.0,31.6,24.6,15.4,0000.0,0008.45,0006.17,0006.06
2023-01-02 19:49:00,,0815.8,4.99,0.00,22.9,21.6,00.0,31.6,24.6,15.5,0000.0,0008.42,0006.12,0006.01
2023-01-02 19:50:00,,0815.5,4.99,0.00,22.8,21.6,00.0,31.6,24.6,15.5,0000.0,0008.41,0006.11,0006.00
2023-01-02 19:51:00,,0815.4,5.00,0.00,22.8,21.5,00.0,31.6,24.6,15.5,-000.1,0008.42,0006.11,0005.99
2023-01-02 19:52:00,,0815.5,5.00,0.00,22.8,21.4,00.0,31.6,24.5,15.5,-000.3,0008.40,0006.08,0005.96
2023-01-02 19:53:00,,0815.5,5.00,0.00,22.8,21.3,00.0,31.6,24.5,15.6,-000.2,0008.34,0006.04,0005.94
2023-01-02 19:54:00,,0815.4,5.01,0.00,22.8,21.3,00.0,31.6,24.5,15.6,0000.0,0008.33,0006.03,0005.93
2023-01-02 19:55:00,,0815.4,5.00,0.00,22.8,21.3,00.0,31.6,24.5,15.6,-000.3,0008.30,0006.00,0005.91
2023-01-02 19:56:00,,0815.4,5.00,0.00,22.7,21.3,00.0,31.6,24.4,15.6,-000.3,0008.29,0005.99,0005.88
2023-01-02 19:57:00,,0815.4,5.01,0.00,22.7,21.3,00.0,31.6,24.4,15.6,-000.8,0008.23,0005.93,0005.83
2023-01-02 19:58:00,,0815.3,4.99,0.00,22.7,21.2,00.0,31.6,24.4,15.6,-000.8,0008.18,0005.88,0005.79
2023-01-02 19:59:00,,0815.3,5.01,0.00,22.7,21.2,00.0,31.6,24.4,15.6,-001.2,0008.09,0005.83,0005.74
